カタログに戻る

STARLINK-34604

運用中通信VLEO
NORAD 64801·PAYLOAD·🇺🇸 United States

打ち上げ Jul 16, 2025 から Vandenberg Space Force Base

Loading…

次のパス (今後24時間)

TLE

最新Source: CelesTrak SupGP

元期: Sep 15, 2026, 03:15 UTC

1 64801C 25150M   26258.13590278  .00051441  00000+0  43119-2 0  2582
2 64801  70.0026  16.8042 0003240 267.5346  96.4806 14.98295577    10

AllMySatでSTARLINK-34604をリアルタイム追跡

Download on the App Store